Location: Unspecified
(0.0000°N, 0.0000°E)
Time: 15:19:52
(UTC+00:00)

ISS - Pass Details

Date: 15 May 2022
Orbit: 414 x 421 km, 51.6° (Epoch: 20 May)

Event Time Altitude Azimuth Distance (km) Brightness Sun altitude
Rises 04:41:20 0° 360° (N) 2,333 0.3 -17.7°
Reaches altitude 10° 04:45:08 10° 45° (NE) 1,478 0.0 -16.8°
Maximum altitude 04:45:40 10° 54° (NE) 1,462 0.2 -16.7°
Drops below altitude 10° 04:46:12 10° 63° (ENE) 1,479 0.3 -16.6°
Sets 04:50:01 0° 108° (ESE) 2,348 0.9 -15.7°
